Other Public Products
Issued by NWS Grand Forks, ND

Home | Current Version | Previous Version | Graphics & Text | Print | Product List | Glossary On
Versions: 1 2 3 4 5 6 7 8 9 10 11 12 13 14 15 16 17 18 19 20 21 22 23 24 25 26 27 28 29 30 31 32 33 34 35 36 37 38 39 40 41 42 43 44 45 46 47 48 49 50
000
FPUS83 KFGF 121431
OPUFGF
PRAIRIE TO PINES WEATHER ROUNDUP
NATIONAL WEATHER SERVICE EASTERN NORTH DAKOTA/GRAND FORKS ND
900 AM CDT SAT JUL 12 2014

 **SATELLITE DATA USED TO AUGMENT SKY COVER AT AUTOMATED STATIONS**
 *****  WEATHER ACROSS EASTERN NORTH DAKOTA  *****

CITY           SKY/WX    TMP DP  RH WIND       PRES   REMARKS
GRAND FORKS    PTSUNNY   64  58  80 W3        30.03S
GRAND FORKS AF NOT AVBL
GRAND CITY NWS   N/A     75 N/A N/A NW2         N/A
BUXTON           N/A     67  61  78 CALM        N/A
DEVILS LAKE    PTSUNNY   66  57  72 SW9       30.06R
FARGO          PTSUNNY   69  59  70 CALM      30.05R
WAHPETON ARPT  CLOUDY    64  57  77 CALM      30.05F
$$

 *****  WEATHER ACROSS CENTRAL AND WESTERN NORTH DAKOTA  *****

CITY           SKY/WX    TMP DP  RH WIND       PRES   REMARKS
JAMESTOWN      CLOUDY    64  58  80 W5        30.09S
BISMARCK       CLOUDY    66  59  78 CALM      30.11F
MINOT          MOSUNNY   65  54  67 SW7       30.09S
MINOT AFB      NOT AVBL
GARRISON         N/A     64  59  83 CALM      30.11S
WILLISTON      CLOUDY    63  55  75 CALM      30.13S
DICKINSON      PTSUNNY   64  59  83 S9        30.12F
HETTINGER      PTSUNNY   62  59  90 S5        30.16R
$$

 *****  OTHER OBSERVATIONS NORTHEAST NORTH DAKOTA  *****

CITY           SKY/WX    TMP DP  RH WIND       PRES   REMARKS
WALHALLA         N/A     66  57  72 W6          N/A
LANGDON        FAIR      66  57  72 W7        30.05S
CAVALIER       FAIR      66  55  68 W7        30.02S
GRAFTON        FAIR      66  55  68 W3        30.02S
CANDO          FAIR      66  59  77 SW8       30.07S
FORT TOTTEN      N/A     66  63  89 SW3       29.95S
ROLLA          FAIR      64  55  72 SW9       30.07S
RUGBY          FAIR      64  59  82 W8        30.07S
 ***** THE ABOVE OBSERVATIONS ARE NON NWS ARE NOT QUALITY
        CONTROLLED AND MAY MIS-REPORT RAIN FOR SNOW...
$$

 *****  OTHER OBSERVATIONS SOUTHEAST NORTH DAKOTA *****

CITY           SKY/WX    TMP DP  RH WIND       PRES   REMARKS
COOPERSTOWN    NOT AVBL
VALLEY CITY    CLOUDY    64  64 100 SW5       30.10R
OAKES          NOT AVBL
GWINNER        PTSUNNY   66  61  82 NW3       30.09S
BUFFALO          N/A     66  55  68 SW2         N/A
WYNDMERE       NOT AVBL
 ***** THE ABOVE OBSERVATIONS ARE NON NWS ARE NOT QUALITY
       CONTROLLED AND MAY MIS-REPORT RAIN FOR SNOW...
$$

  *****  WEATHER ACROSS NORTHERN MINNESOTA  *****

CITY           SKY/WX    TMP DP  RH WIND       PRES   REMARKS
FLAG ISLAND    SUNNY     70  54  56 S6        30.00S
WARROAD        SUNNY     68  59  73 SE6       30.01F
ROSEAU         SUNNY     68  61  77 S3        30.01F
HALLOCK        SUNNY     66  55  68 CALM      30.01S
THF RVR FALLS  PTSUNNY   66  57  72 CALM      30.03S
HALSTAD          N/A     68  57  68 SW3         N/A
FOSSTON        MOSUNNY   64  57  77 CALM      30.05S
BAUDETTE       SUNNY     67  55  65 CALM      30.03S
WASKISH        MOSUNNY   70  59  68 CALM      30.02F
CROOKSTON      PTSUNNY   64  57  77 CALM      30.04S
$$
  *****  WEATHER ACROSS CENTRAL AND WEST MINNESOTA  *****

CITY           SKY/WX    TMP DP  RH WIND       PRES   REMARKS
BEMIDJI        MOSUNNY   68  57  67 CALM      30.04S
PARK RAPIDS    PTSUNNY   68  57  68 SE5       30.05R
WADENA         CLOUDY    66  57  72 CALM      30.04S
DETROIT LAKES  PTSUNNY   68  59  73 CALM      30.06R
MOORHEAD       PTSUNNY   68  63  83 NW3       30.07R
FERGUS FALLS   CLOUDY    66  57  72 CALM      30.05R
ELBOW LAKE     PTSUNNY   66  61  82 N3        30.05S
MORRIS MN      CLOUDY    68  63  83 N6        30.03S
STAPLES        PTSUNNY   66  59  77 CALM      30.05R
WHEATON        DRIZZLE   63  61  94 NW3       30.07R
$$
  *****  WEATHER ELSEWHERE ACROSS MINNESOTA  *****

CITY           SKY/WX    TMP DP  RH WIND       PRES   REMARKS
DULUTH         SUNNY     70  58  65 N7        30.02S
INTRNTL FALLS  MOSUNNY   68  55  63 N5        30.02S
ELY            SUNNY     66  55  68 CALM      30.02S
CLOQUET        MOSUNNY   68  57  68 NE5       30.02F
BRAINERD       PTSUNNY   73  60  63 NE3       30.04S
HIBBING        SUNNY     71  57  61 CALM      30.03R
ALEXANDRIA     LGT RAIN  66  59  78 CALM      30.07R
SAINT CLOUD    CLOUDY    71  62  73 CALM      30.01S
MINNEAPOLIS    CLOUDY    72  70  93 CALM      29.98F FOG
$$

  *****  WEATHER ACROSS SOUTH DAKOTA  *****

CITY           SKY/WX    TMP DP  RH WIND       PRES   REMARKS
SIOUX FALLS    CLOUDY    72  66  81 NW12      30.04R
BROOKINGS      NOT AVBL
WATERTOWN      LGT RAIN  63  61  93 N7        30.11R
HURON          LGT RAIN  67  67 100 N12       30.08R
SISSETON         N/A     66  61  84 NW6       30.05R
ABERDEEN       LGT RAIN  63  61  93 W6        30.13R
MITCHELL       CLOUDY    71  63  75 E13G21    30.05S
PIERRE         CLOUDY    65  61  87 NE6       30.09R
MOBRIDGE       LGT RAIN  64  63  96 NE6       30.10F
RAPID CITY     CLOUDY    61  59  93 N8        30.17R
$$

  *****  SOME WEATHER IN NEARBY STATES *****

CITY           SKY/WX    TMP DP  RH WIND       PRES   REMARKS
GLASGOW MT     NOT AVBL
GREAT FALLS MT SUNNY     62  53  72 SW3       30.23R
CHEYENNE WY    MOSUNNY   61  57  87 W6        30.28R
SCOTTSBLUFF NE CLOUDY    64  61  90 W5        30.21R
OMAHA NE       CLOUDY    75  68  78 SE8       29.99S
DES MOINES IA  CLOUDY    74  70  87 S9        30.02F
DAVENPORT IA   CLOUDY    72  70  93 SW12      30.02R
CHICAGO IL     CLOUDY    70  66  87 S8        30.04F FOG
EAU CLAIRE WI  CLOUDY    72  69  90 W5        30.00S
LA CROSSE WI   CLOUDY    73  68  84 S6        30.01S
$$

  *****  SOME NATIONAL WEATHER *****

CITY           SKY/WX    TMP DP  RH WIND       PRES   REMARKS
LA GUARDIA NY  MOSUNNY   80  58  46 SW7       30.22S
RALEIGH NC     MOSUNNY   80  68  66 CALM      30.23S
ATLANTA GA     CLOUDY    74  71  91 E6        30.24R FOG
NEW ORLEANS LA MOSUNNY   83  72  69 NW7       30.15R
OKLAHOMA CITY  SUNNY     80  62  54 S8        30.15R
ALBUQUERQUE NM MOSUNNY   69  58  67 N7        30.26R
SALT LAKE CITY MOSUNNY   74  57  55 CALM      30.17R
LOS ANGELES CA MOSUNNY   68  61  78 CALM      29.99S
BOISE ID       MOSUNNY   77  40  26 W7        30.09R
SEATTLE WA     PTSUNNY   65  57  75 CALM      30.07R
$$

*** WEATHER ACROSS MANITOBA...SASKATCHEWAN AND ONTARIO ***
                ***ONTARIO***

CITY           SKY/WX    TMP DP  RH WIND       PRES   REMARKS
GERALDTON      MOSUNNY   66  59  77 W8        29.92S
THUNDER BAY    MOSUNNY   70  57  64 W6        29.97S
SIOUX LOOKOUT  MOSUNNY   64  48  55 W6        29.99R
TORONTO        MOSUNNY   72  59  64 SE7       30.15S
BIG TROUT LK   SUNNY     61  48  63 W14G21    29.73F
PICKLE LAKE    MOSUNNY   63  46  55 W10       29.91R
DRYDEN         SUNNY     66  48  52 W5        30.00R
KENORA         MOSUNNY   66  52  59 SW7       30.01S
$$
                *** MANITOBA***

CITY           SKY/WX    TMP DP  RH WIND       PRES   REMARKS
BRANDON        MOSUNNY   64  57  77 W10       30.02F
DAUPHIN        SUNNY     68  55  64 W17G23    29.91F
ISLAND LAKE    MOSUNNY   61  52  72 W6        29.73F
PILOT MOUND      N/A     63  57  82 SW6         N/A
THE PAS        LGT RAIN  55  52  88 CALM      29.81  FOG
THOMPSON       PTSUNNY   55  52  88 W6        29.67S
WINNIPEG       MOSUNNY   66  57  72 SW8       29.99S
LYNN LAKE      LGT RAIN  50  46  87 NW13G24   29.75R
CHURCHILL      LGT RAIN  46  45  93 NW16G23   29.44R FOG
GILLAM         PTSUNNY   55  45  67 W18G25    29.60S
$$
                ***SASKATCHEWAN***

CITY           SKY/WX    TMP DP  RH WIND       PRES   REMARKS
ESTEVAN        CLOUDY    63  55  77 W7        30.10F
KINDERSLEY     PTSUNNY   63  54  72 W8        30.12R
LLOYDMINSTER   PTSUNNY   61  54  77 N9        30.11R
PRINCE ALBERT  PTSUNNY   63  55  77 NW10      29.99R
REGINA         SUNNY     63  55  77 W12G18    30.08S
YORKTON        SUNNY     66  54  63 W15G21    29.96F


USA.gov is the U.S. government's official web portal to all federal, state and local government web resources and services.